weather.gov     
National Weather Service

Regional Weather Roundup
NWS Homepage
This page is being discontinued on March 12, 2014.
The same data is available at this site. Please update your bookmarks.
Thank you, and we apologize for the inconvenience.
Please send an email to SR-SRH.Webmaster@noaa.gov with any concerns.


Current Version
Previous Version:    01  02  03  04  05  06  07  08  09  10  11  12  13  14  15  16  17  18  19  20  21  22  23  24  25  26  27  28  29  30  
   31  32  33  34  35  36  37  38  39  40  41  42  43  44  45  46  47  48  49  50  51  52  53  
[Printable]
258
ASUS43 KTOP 231408
RWRKS

WEATHER ROUNDUP FOR KANSAS
NATIONAL WEATHER SERVICE GOODLAND KS
900 AM CDT WED APR 23 2014

NOTE:  "FAIR" INDICATES FEW OR NO CLOUDS BELOW 12,000 FEET WITH NO
SIGNIFICANT WEATHER AND/OR OBSTRUCTIONS TO VISIBILITY.

KSZ001>006-013>018-027>032-041>047-231500-
NORTHWEST KANSAS

CITY           SKY/WX    TMP DP  RH WIND       PRES   REMARKS
GOODLAND       CLOUDY    64  43  46 SW21G36   29.61S
HAYS           CLOUDY   N/A N/A N/A S24       29.72F
HILL CITY      PTSUNNY   61  47  59 S16G25    29.66F
RUSSELL        CLOUDY    62  42  47 S25G36    29.73S
$$

KSZ061>065-074>080-084>089-231500-
SOUTHWEST KANSAS

CITY           SKY/WX    TMP DP  RH WIND       PRES   REMARKS
DODGE CITY     MOSUNNY   63  48  58 S16G28    29.76S
ELKHART          N/A     64  41  43 S16         N/A
GARDEN CITY    PTSUNNY   63  45  51 S21       29.72F
GREAT BEND     PTSUNNY   59  43  55 S21G28    29.76S
LIBERAL        PTSUNNY   64  45  48 S18       29.77S
PRATT          PTSUNNY   59  43  55 S17       29.82R
$$

KSZ066>073-081>083-090>101-231500-
SOUTHEAST KANSAS

CITY           SKY/WX    TMP DP  RH WIND       PRES   REMARKS
CHANUTE        CLOUDY    57  38  48 SE13      29.95F
COFFEYVILLE    PTSUNNY   59  43  55 SE12      29.94F
HUTCHINSON     MOSUNNY   63  37  38 S18       29.84F
MEDICINE LODGE   N/A     61  44  53 S10       29.82F
NEWTON         MOSUNNY   61  36  39 S17       29.90S
PARSONS        PTSUNNY   59  37  44 SE9       29.95F
WICHITA INTL   PTSUNNY   62  38  40 S20G26    29.87R
WICHITA JABRA  MOSUNNY   63  38  39 S15G24    29.88S
WICHITA MCCONL MOSUNNY   61  38  42 SE15      29.89S
$$

KSZ007>012-019>026-033>040-048>060-102>105-231500-
NORTHEAST KANSAS

CITY           SKY/WX    TMP DP  RH WIND       PRES   REMARKS
CONCORDIA      PTSUNNY   55  43  63 SE22G29   29.81F
EMPORIA        PTSUNNY   58  38  47 E12       29.92R
LAWRENCE       CLOUDY    58  36  43 SE15G26   29.98F
MANHATTAN      LGT RAIN  58  40  51 SE10      29.91R
OLATHE IND     CLOUDY    54  36  50 SE14      29.98F
OLATHE EXE     CLOUDY    54  36  50 SE13      29.99F
SALINA         PTSUNNY   61  38  42 SE21G30   29.83F
TOPEKA BILLARD CLOUDY    58  38  47 SE13      29.96F
TOPEKA FORBES  CLOUDY    57  36  45 SE10      29.96R
$$




U.S. Dept. of Commerce
NOAA National Weather Service
1325 East West Highway
Silver Spring, MD 20910
E-mail: w-nws.webmaster@noaa.gov
Page last modified: May 16, 2007
NATIONAL WEATHER SERVICE: for Safety, for Work, for Fun - FOR LIFE